Weather History for KBQK - June, 2014

Change the Weather History Date:

Wednesday, June 25, 2014

  Actual Average Record
Temperature  
Mean Temperature 82 °F -  
Max Temperature 93 °F 91 °F 104 °F (1952)
Min Temperature 71 °F 72 °F 64 °F (2001)
Cooling Degree Days 17    
Growing Degree Days 32 (Base 50)    
Moisture  
Dew Point 70 °F    
Average Humidity 70    
Maximum Humidity 94    
Minimum Humidity 41    
Precipitation  
Precipitation 0.00 in - - ()
Sea Level Pressure  
Sea Level Pressure 30.07 in    
Wind  
Wind Speed 4 mph (SW)    
Max Wind Speed 13 mph    
Max Gust Speed 17 mph    
Visibility 10 miles    
Events      
Averages and records for this station are not official NWS values.
T = Trace of Precipitation, MM = Missing Value Source: NWS Daily Summary

Daily Weather History Graph

Daily Weather History Graph

Search for Another Location

Airport or City:

Trip Planner

Search our weather history database for the weather conditions in past years. The results will help you decide how hot, cold, wet, or windy it might be!

Date:

Astronomy

Jun. 25, 2014 Rise Set
Actual Time 6:23 AM EDT 8:33 PM EDT
Civil Twilight 5:55 AM EDT 9:01 PM EDT
Nautical Twilight 5:21 AM EDT 9:35 PM EDT
Astronomical Twilight 4:44 AM EDT 10:12 PM EDT
Moon 5:07 AM EDT (6/25) 7:10 PM EDT (6/25)
Length of Visible Light 15h 06m
Length of Day
14h 10m
Waning Crescent, 3% of the Moon is Illuminated
Jun 25
Waning Crescent
Jun 27
New
Jul 5
First Quarter
Jul 12
Full
Jul 18
Last Quarter

Hourly Weather History & Observations

Time (EDT) Temp. Heat Index Dew Point Humidity Pressure Visibility Wind Dir Wind Speed Gust Speed Precip Events Conditions
12:10 AM 73.4 °F - 69.8 °F 88% 30.11 in 10.0 mi Calm Calm - N/A   Mostly Cloudy
12:30 AM 73.4 °F - 69.8 °F 88% 30.10 in 10.0 mi Calm Calm - N/A   Mostly Cloudy
12:50 AM 71.6 °F - 69.8 °F 94% 30.10 in 10.0 mi Calm Calm - N/A   Scattered Clouds
1:10 AM 73.4 °F - 69.8 °F 88% 30.09 in 10.0 mi Calm Calm - N/A   Clear
1:30 AM 71.6 °F - 69.8 °F 94% 30.09 in 10.0 mi Calm Calm - N/A   Scattered Clouds
1:50 AM 73.4 °F - 69.8 °F 88% 30.09 in 10.0 mi SW 4.6 mph - N/A   Scattered Clouds
2:10 AM 73.4 °F - 69.8 °F 88% 30.09 in 10.0 mi SW 4.6 mph - N/A   Scattered Clouds
2:30 AM 73.4 °F - 69.8 °F 88% 30.08 in 10.0 mi SW 3.5 mph - N/A   Clear
2:50 AM 73.4 °F - 69.8 °F 88% 30.09 in 10.0 mi SW 4.6 mph - N/A   Clear
3:10 AM 73.4 °F - 69.8 °F 88% 30.08 in 10.0 mi SW 4.6 mph - N/A   Clear
3:30 AM 73.4 °F - 69.8 °F 88% 30.08 in 10.0 mi SW 4.6 mph - N/A   Scattered Clouds
3:50 AM 73.4 °F - 69.8 °F 88% 30.08 in 10.0 mi WSW 3.5 mph - N/A   Overcast
4:10 AM 73.4 °F - 69.8 °F 88% 30.08 in 10.0 mi Calm Calm - N/A   Overcast
4:30 AM 73.4 °F - 69.8 °F 88% 30.08 in 10.0 mi SW 4.6 mph - N/A   Overcast
4:50 AM 73.4 °F - 69.8 °F 88% 30.08 in 10.0 mi SW 4.6 mph - N/A   Mostly Cloudy
5:10 AM 71.6 °F - 69.8 °F 94% 30.08 in 10.0 mi Calm Calm - N/A   Scattered Clouds
5:30 AM 73.4 °F - 69.8 °F 88% 30.09 in 10.0 mi Calm Calm - N/A   Clear
5:50 AM 73.4 °F - 69.8 °F 88% 30.09 in 10.0 mi Calm Calm - N/A   Clear
6:10 AM 73.4 °F - 69.8 °F 88% 30.09 in 10.0 mi Calm Calm - N/A   Clear
6:30 AM 73.4 °F - 69.8 °F 88% 30.09 in 10.0 mi WSW 3.5 mph - N/A   Clear
6:50 AM 73.4 °F - 69.8 °F 88% 30.10 in 10.0 mi WSW 3.5 mph - N/A   Clear
7:10 AM 73.4 °F - 69.8 °F 88% 30.10 in 10.0 mi WSW 3.5 mph - N/A   Clear
7:30 AM 73.4 °F - 71.6 °F 94% 30.10 in 10.0 mi Calm Calm - N/A   Clear
7:50 AM 75.2 °F - 71.6 °F 89% 30.10 in 10.0 mi Calm Calm - N/A   Clear
8:10 AM 77.0 °F - 71.6 °F 83% 30.11 in 10.0 mi WSW 4.6 mph - N/A   Clear
8:30 AM 77.0 °F - 71.6 °F 83% 30.11 in 10.0 mi West 5.8 mph - N/A   Clear
8:50 AM 78.8 °F - 71.6 °F 78% 30.12 in 10.0 mi West 8.1 mph - N/A   Clear
9:10 AM 80.6 °F 84.6 °F 71.6 °F 74% 30.12 in 10.0 mi WNW 8.1 mph - N/A   Clear
9:30 AM 80.6 °F 85.4 °F 73.4 °F 79% 30.12 in 10.0 mi WNW 5.8 mph - N/A   Clear
9:50 AM 82.4 °F 88.2 °F 73.4 °F 74% 30.12 in 10.0 mi West 9.2 mph - N/A   Clear
10:10 AM 84.2 °F 89.6 °F 71.6 °F 66% 30.12 in 10.0 mi West 10.4 mph - N/A   Clear
10:30 AM 84.2 °F 89.6 °F 71.6 °F 66% 30.13 in 10.0 mi West 11.5 mph 17.3 mph N/A   Clear
10:50 AM 86.0 °F 91.8 °F 71.6 °F 62% 30.12 in 10.0 mi West 6.9 mph - N/A   Clear
11:10 AM 87.8 °F 93.8 °F 71.6 °F 58% 30.12 in 10.0 mi West 4.6 mph - N/A   Clear
11:30 AM 87.8 °F 91.4 °F 68.0 °F 52% 30.12 in 10.0 mi West 8.1 mph - N/A   Clear
11:50 AM 87.8 °F 92.6 °F 69.8 °F 55% 30.11 in 10.0 mi WNW 3.5 mph - N/A   Clear
12:10 PM 89.6 °F 94.7 °F 69.8 °F 52% 30.11 in 10.0 mi West 6.9 mph - N/A   Clear
12:30 PM 89.6 °F 94.7 °F 69.8 °F 52% 30.11 in 10.0 mi WSW 10.4 mph - N/A   Scattered Clouds
12:50 PM 89.6 °F 93.4 °F 68.0 °F 49% 30.10 in 10.0 mi West 6.9 mph - N/A   Scattered Clouds
1:10 PM 91.4 °F 95.4 °F 68.0 °F 46% 30.09 in 10.0 mi WSW 10.4 mph - N/A   Scattered Clouds
1:30 PM 91.4 °F 95.4 °F 68.0 °F 46% 30.09 in 10.0 mi West 9.2 mph - N/A   Clear
1:50 PM 91.4 °F 95.4 °F 68.0 °F 46% 30.08 in 10.0 mi WSW 10.4 mph - N/A   Scattered Clouds
2:10 PM 91.4 °F 95.4 °F 68.0 °F 46% 30.07 in 10.0 mi WSW 10.4 mph - N/A   Scattered Clouds
2:30 PM 93.2 °F 97.7 °F 68.0 °F 44% 30.06 in 10.0 mi West 8.1 mph 16.1 mph N/A   Scattered Clouds
2:50 PM 91.4 °F 95.4 °F 68.0 °F 46% 30.06 in 10.0 mi SW 9.2 mph - N/A   Mostly Cloudy
3:10 PM 91.4 °F 95.4 °F 68.0 °F 46% 30.04 in 10.0 mi SSW 4.6 mph - N/A   Mostly Cloudy
3:30 PM 91.4 °F 95.4 °F 68.0 °F 46% 30.04 in 10.0 mi SSW 9.2 mph - N/A   Mostly Cloudy
3:50 PM 91.4 °F 95.4 °F 68.0 °F 46% 30.03 in 10.0 mi WSW 10.4 mph - N/A   Scattered Clouds
4:10 PM 93.2 °F 96.2 °F 66.2 °F 41% 30.02 in 10.0 mi SW 9.2 mph - N/A   Scattered Clouds
4:30 PM 93.2 °F 96.2 °F 66.2 °F 41% 30.02 in 10.0 mi West 6.9 mph - N/A   Scattered Clouds
4:50 PM 93.2 °F 97.7 °F 68.0 °F 44% 30.01 in 10.0 mi WSW 8.1 mph - N/A   Scattered Clouds
5:10 PM 93.2 °F 96.2 °F 66.2 °F 41% 30.00 in 10.0 mi SW 8.1 mph - N/A   Scattered Clouds
5:30 PM 91.4 °F 94.0 °F 66.2 °F 43% 30.00 in 10.0 mi SW 5.8 mph - N/A   Scattered Clouds
5:50 PM 89.6 °F 98.2 °F 73.4 °F 59% 29.99 in 10.0 mi SE 11.5 mph - N/A   Scattered Clouds
6:10 PM 89.6 °F 98.2 °F 73.4 °F 59% 29.99 in 10.0 mi SSE 6.9 mph - N/A   Mostly Cloudy
6:30 PM 89.6 °F 98.2 °F 73.4 °F 59% 29.99 in 10.0 mi SSE 11.5 mph - N/A   Mostly Cloudy
6:50 PM 87.8 °F 95.6 °F 73.4 °F 62% 29.99 in 10.0 mi South 9.2 mph - N/A   Scattered Clouds
7:10 PM 87.8 °F 95.6 °F 73.4 °F 62% 29.99 in 10.0 mi South 11.5 mph - N/A   Scattered Clouds
7:30 PM 87.8 °F 95.6 °F 73.4 °F 62% 30.00 in 10.0 mi South 8.1 mph - N/A   Scattered Clouds
7:50 PM 87.8 °F 95.6 °F 73.4 °F 62% 30.00 in 10.0 mi South 11.5 mph 17.3 mph N/A   Scattered Clouds
8:10 PM 86.0 °F 93.4 °F 73.4 °F 66% 30.01 in 10.0 mi SW 12.7 mph 17.3 mph N/A   Scattered Clouds
8:30 PM 82.4 °F 86.3 °F 69.8 °F 66% 30.02 in 10.0 mi SSW 6.9 mph - N/A   Mostly Cloudy
8:50 PM 80.6 °F 83.9 °F 69.8 °F 70% 30.02 in 10.0 mi SSW 5.8 mph - N/A   Scattered Clouds
9:10 PM 80.6 °F 83.9 °F 69.8 °F 70% 30.04 in 10.0 mi SW 8.1 mph - N/A   Clear
9:30 PM 80.6 °F 83.9 °F 69.8 °F 70% 30.04 in 10.0 mi SW 5.8 mph - N/A   Clear
9:50 PM 80.6 °F 83.9 °F 69.8 °F 70% 30.05 in 10.0 mi WSW 3.5 mph - N/A   Clear
10:10 PM 80.6 °F 83.9 °F 69.8 °F 70% 30.06 in 10.0 mi SW 6.9 mph - N/A   Clear
10:30 PM 78.8 °F - 69.8 °F 74% 30.07 in 10.0 mi SW 4.6 mph - N/A   Clear
10:50 PM 78.8 °F - 69.8 °F 74% 30.07 in 10.0 mi SW 6.9 mph - N/A   Clear
11:10 PM 78.8 °F - 69.8 °F 74% 30.08 in 10.0 mi SW 4.6 mph - N/A   Clear
11:30 PM 78.8 °F - 69.8 °F 74% 30.08 in 10.0 mi SSW 6.9 mph - N/A   Scattered Clouds
11:50 PM 78.8 °F - 69.8 °F 74% 30.08 in 10.0 mi SW 5.8 mph - N/A   Scattered Clouds